CZ-4 DEB, 26313

Orbit data source: Space-Track

CZ-4 DEB, 26313 is space debris in SSO originally from a launch on Thu, 14 Oct 1999 UTC launched from the Taiyaun Space Center, China (TSC). Debris objects in space refer to the collection of defunct objects orbiting the Earth. Examples of debris include non-operational satellites, rocket bodies, and fragments generated from explosions, collisions, or faulty payload assembly.

Loading next visibility...
Identifier
26313, 1999-057GW
Orbit
SSO
Country
Flag of CNCN / PRC
Related business
Manufacturer
Unknown
Mission
Spacecraft
Bus & Motor
Unknown
Mass
Unknown
Launch date (UTC)
1999-10-14 (26 years ago)
Launch vehicle
Unknown
Launch site
Taiyaun Space Center, China (TSC)
Object type
Payload
Rocket body
Debris
Shape & HBR
Unknown shape, 0.1 m
Radar Cross Section
Small (<0.1 m²)

Expand to show TLE details & history
Last TLE update: 14 hours ago

TLE from 14 hours ago
0 CZ-4 DEB
1 26313U 99057GW  25296.69979102  .00003540  00000-0  77372-3 0  9993
2 26313  98.4759 354.8482 0074671 131.3366 346.5898 14.56704625347570
Epoch: 2025-10-23T16:47Z
TLE epoch observation values (Epoch: 2025-10-23T16:47:41.944Z)
Latitude
61.2032°
Longitude
-93.78917°
Altitude
662.846 km
Speed
7.559 km/s
True Right ascension
12h 41m 57s
True Declination
61° 03' 21"
Sunlit
Object was in daylight at epoch
Visualization orbit readout
Latitude
Unknown
Longitude
Unknown
Altitude
Unknown
Speed
Unknown
Apparent Right ascension
Unknown
Apparent Declination
Unknown
Sunlit
N/A
Visualization observer readout
Local Sidereal Time
02:09:16
Azimuth
Unknown
Elevation
Unknown
Doppler factor
Unknown
Orbital elements
Apogee altitude
753.793 km
Perigee altitude
648.073 km
Semi-major axis
7,079.07 km
Eccentricity
0.00747
Inclination
98.4759°
RAAN
354.8482°
Arg. of periapsis
131.3366°
True anomaly
346.38954°
Mean anomaly
346.5898°
Eccentric anomaly
346.48985°
Mean motion
3.644 °/min
Orbital period
98.79 mins
BSTAR
0.00077372
Loading maneuver chart data...
Computing Atmospheric mass density...

Documentation

Showing up to 5 results
|